SCP
0 0 0 0 0 0 0 0 0 0 0 0 0 0 0 0 0 0 0 0 0 0 0 0 0 0 0 0 0 0 0 0 0 0 0 0 0 0 0 0 0 0 0 0
0 0 0 0 0 0 0 0 0 0 0 0 0 0 0 0 0 0 0 0 0 0 0 0 0 0 0 0 0 0 0 0 0 0 0 0 0 0 0 0 0 0 0 0
0 0 0 0 0 0 0 0 0 0 0 0 0 0 0 0 0 0 0 0 0 0 0 0 0 0 0 0 0 0 0 0 0 0 0 0 0 0 0 0 0 0 0 0
0 0 0 0 0 0 0 0 0 0 0 0 0 0 0 0 0 0 0 0 0 0 0 0 0 0 0 0 0 0 0 0 0 0 0 0 0 0 0 0 0 0 0 0
0 0 0 0 0 0 0 0 0 0 0 0 0 0 0 0 0 0 0 0 0 0 0 0 0 0 0 0 0 0 0 0 0 0 0 0 0 0 0 0 0 0 0 0
0 0 0 0 0 0 0 0 0 0 0 0 0 0 0 0 0 0 0 0 0 0 0 0 0 0 0 0 0 0 0 0 0 0 0 0 0 0 0 0 0 0 0 0
0 0 0 0 0 0 0 0 0 0 0 0 0 0 0 0 0 0 0 0 0 0 0 0 0 0 0 0 0 0 0 0 0 0 0 0 0 0 0 0 0 0 0 0
0 0 0 0 0 0 0 0 0 0 0 0 0 0 0 0 0 0 0 0 0 0 0 0 0 0 0 0 0 0 0 0 0 0 0 0 0 0 0 0 0 0 0 0
0 0 0 0 0 0 0 0 0 0 0 0 0 0 0 0 0 0 0 0 0 0 0 0 0 0 0 0 0 0 0 0 0 0 0 0 0 0 0 0 0 0 0 0
0 0 0 0 0 0 0 0 0 0 0 0 0 0 0 0 0 0 0 0 0 0 0 0 0 0 0 0 0 0 0 0 0 0 0 0 0 0 0 0 0 0 0 0
0 0 0 0 0 0 0 0 0 0 0 0 0 0 0 0 0 0 0 0 0 0 0 0 0 0 0 0 0 0 0 0 0 0 0 0 0 0 0 0 0 0 0 0
0 0 0 0 0 0 0 0 0 0 0 0 0 0 0 0 0 0 0 0 0 0 0 0 0 0 0 0 0 0 0 0 0 0 0 0 0 0 0 0 0 0 0 0
0 0 0 0 0 0 0 0 0 0 0 0 0 0 0 0 0 0 0 0 0 0 0 0 0 0 0 0 0 0 0 0 0 0 0 0 0 0 0 0 0 0 0 0
0 0 0 0 0 0 0 0 0 0 0 0 0 0 0 0 0 0 0 0 0 0 0 0 0 0 0 0 0 0 0 0 0 0 0 0 0 0 0 0 0 0 0 0
0 0 0 0 0 0 0 0 0 0 0 0 0 0 0 0 0 0 0 0 0 0 0 0 0 0 0 0 0 0 0 0 0 0 0 0 0 0 0 0 0 0 0 0
0 0 0 0 0 0 0 0 0 0 0 0 0 0 0 0 0 0 0 0 0 0 0 0 0 0 0 0 0 0 0 0 0 0 0 0 0 0 0 0 0 0 0 0
0 0 0 0 0 0 0 0 0 0 0 0 0 0 0 0 0 0 0 0 0 0 0 0 0 0 0 0 0 0 0 0 0 0 0 0 0 0 0 0 0 0 0 0
0 0 0 0 0 0 0 0 0 0 0 0 0 0 0 0 0 0 0 0 0 0 0 0 0 0 0 0 0 0 0 0 0 0 0 0 0 0 0 0 0 0 0 0
0 0 0 0 0 0 0 0 0 0 0 0 0 0 0 0 0 0 0 0 0 0 0 0 0 0 0 0 0 0 0 0 0 0 0 0 0 0 0 0 0 0 0 0
0 0 0 0 0 0 0 0 0 0 0 0 0 0 0 0 0 0 0 0 0 0 0 0 0 0 0 0 0 0 0 0 0 0 0 0 0 0 0 0 0 0 0 0
0 0 0 0 0 0 0 0 0 0 0 0 0 0 0 -0 0 0 0 0 0 0 0 0 0 0 0 0 0 0 0 0 0 0 0 0 0 0 0 0 0 0 0 0
0 0 0 0 0 -0 -0 0 0 0 0 0 0 0 0 0 0 0 0 0 0 0 0 0 0 0 0 0 0 0 0 0 0 0 0 0 0 0 0 0 0 0 0 0
0 0 0 0 0 0 0 0 0 0 0 0 0 0 0 0 0 0 0 0 0 0 0 0 0 0 0 0 0 0 0 0 0 0 0 0 0 0 0 0 0 0 0 0
0 0 0 0 0 0 0 0 0 0 0 0 0 0 0 0 0 0 0 0 0 0 0 0 0 0 0 0 0 0 0 0 0 0 0 0 0 0 0 0 0 0 0 0
0 0 0 0 0 0 0 0 0 0 0 0 0 0 0 0 0 0 0 0 0 0 0 0 0 0 0 0 0 0 0 0 0 0 0 0 0 0 0 0 0 0 0 0
0 0 0 0 0 0 0 0 0 0 0 0 0 0 0 0 0 0 0 0 0 0 0 0 0 0 0 0 0 0 0 0 0 0 0 0 0 0 0 0 0 0 0 0
0 0 0 0 0 0 0 0 0 0 0 0 0 0 0 0 0 0 0 0 0 0 0 0 0 0 0 0 0 0 0 0 0 0 0 0 0 0 0 0 0 0 0 0
Wind_Speed
7 7 5 7 8 7 9 9 9 10 11 12 10 9 9 7 7 7 6 6 7 7 7 7 7 6 6 5 5 5 5 5 5 5 5 5 5 4 5 5 5 5 4 4
4 4 5 7 9 9 10 10 12 12 13 10 8 7 7 6 6 7 7 7 7 7 7 7 7 7 6 6 5 5 5 5 4 4 4 4 4 4 4 4 4 4 4 4
4 2 4 7 7 9 7 7 7 9 8 5 6 7 7 7 6 7 7 7 7 8 7 7 7 7 6 6 5 5 5 4 4 4 4 3 3 3 4 3 3 3 3 3
3 2 6 1 1 4 6 6 7 7 7 6 7 8 8 6 5 7 7 7 8 7 7 7 7 6 6 5 5 4 4 4 4 4 3 3 3 3 3 3 3 2 2 2
2 4 7 3 2 3 4 6 5 7 8 7 6 7 4 2 4 6 6 7 7 6 6 6 6 6 5 5 4 4 4 4 4 4 3 3 3 3 2 2 2 2 2 2
3 5 5 1 1 1 3 4 1 3 5 4 4 5 3 4 6 6 7 6 6 6 5 6 6 5 4 4 4 4 4 5 4 3 3 3 3 2 2 2 2 1 2 1
6 6 6 2 0 3 3 3 1 3 4 3 4 5 6 6 6 6 6 6 6 5 4 5 5 4 4 4 4 5 5 4 3 3 3 3 3 2 2 1 1 1 1 1
5 6 6 3 4 4 3 3 3 4 4 5 6 6 6 6 6 6 6 6 5 4 4 4 4 4 4 4 5 5 4 3 3 3 3 2 2 2 1 0 0 1 1 2
6 5 2 4 4 4 3 4 4 4 4 5 6 6 5 5 5 6 5 5 5 4 4 4 3 3 4 5 5 4 3 3 3 3 3 3 2 2 1 1 1 1 1 1
5 7 6 6 6 5 5 6 6 5 5 4 5 5 5 5 5 5 4 4 4 4 4 4 4 4 4 4 4 3 3 3 3 3 3 3 2 2 1 1 1 1 1 1
6 6 6 5 6 6 6 5 5 5 4 4 4 5 5 4 4 4 4 4 4 4 4 5 5 4 4 4 3 3 3 3 3 3 2 2 2 2 2 2 1 1 1 1
6 5 5 4 3 3 4 4 4 4 4 4 4 4 4 4 4 3 3 4 4 4 4 5 5 5 5 4 3 2 2 3 2 2 2 2 2 2 4 3 4 4 3 2
6 4 5 5 4 3 4 4 4 4 4 4 3 3 3 3 3 3 3 3 4 4 4 4 4 5 5 4 3 2 2 2 2 2 2 2 2 2 2 3 4 4 4 3
5 3 4 4 4 3 3 3 3 3 3 3 3 2 2 3 3 3 3 4 4 4 4 4 4 4 5 4 3 2 2 2 2 2 2 1 1 1 1 1 2 2 3 3
6 6 5 3 2 2 2 2 2 2 2 2 2 2 2 2 3 4 4 3 3 3 4 4 4 5 5 3 3 2 2 2 2 2 1 1 1 1 1 1 1 2 2 2
3 3 3 3 4 3 2 2 3 3 3 3 2 2 2 2 3 3 3 3 3 4 4 4 4 5 4 3 2 2 2 3 2 2 2 1 1 1 1 1 1 1 2 2
3 3 4 4 4 3 3 3 3 3 3 3 3 2 2 2 2 3 3 3 3 3 4 3 4 4 4 3 2 2 2 2 3 2 1 1 1 1 1 1 1 2 2 2
5 5 4 4 4 4 4 3 3 3 3 3 2 1 1 2 2 3 3 4 3 3 4 4 4 4 3 3 2 1 1 1 1 1 1 1 1 1 1 1 2 2 2 2
4 4 3 3 3 3 3 3 3 3 2 2 1 2 2 2 3 3 3 3 3 4 4 4 5 4 3 3 3 1 1 1 1 1 1 2 2 1 1 1 2 2 2 2
2 2 2 2 2 2 3 2 2 2 2 1 1 1 2 2 2 2 2 2 2 3 3 4 4 3 3 3 3 1 1 1 1 1 1 1 1 2 2 2 2 2 2 2
2 2 1 1 1 2 2 2 2 2 1 1 2 2 2 2 2 2 2 2 3 3 3 4 3 2 2 2 2 1 1 1 1 1 1 1 2 2 2 2 2 2 2 2
2 2 2 1 1 1 1 1 1 1 1 1 1 1 1 2 2 2 2 2 3 4 3 2 2 3 3 3 1 1 1 1 1 1 1 1 2 2 2 2 2 2 2 2
2 2 2 2 2 1 1 1 1 1 2 2 2 2 2 2 2 2 2 2 2 3 3 2 3 4 4 2 1 1 1 1 1 1 1 1 1 2 2 2 2 2 2 1
2 2 1 1 1 1 1 1 1 1 1 2 2 2 2 2 2 2 2 3 3 4 2 3 4 4 3 2 1 1 1 1 1 2 2 2 2 2 2 2 2 2 2 2
2 2 2 2 2 2 2 1 1 1 1 1 2 2 2 2 2 2 2 2 3 3 2 3 3 3 2 1 1 1 1 1 1 2 2 2 2 2 2 2 2 2 1 1
2 2 2 2 2 2 2 1 1 1 1 1 1 1 1 1 2 2 2 2 2 2 2 2 2 2 1 1 2 2 2 2 2 2 2 2 2 2 2 2 2 1 1 1
2 2 1 1 1 2 2 2 2 2 2 2 2 2 2 2 1 2 2 2 1 1 2 2 2 2 1 1 1 2 2 2 2 2 2 2 2 2 2 2 1 1 1 1
Wind_Direction
270 278 264 257 248 227 226 240 252 269 271 282 299 304 306 310 316 321 325 332 333 330 329 327 323 320 318 313 302 296 290 286 284 285 282 279 275 269 263 260 258 258 257 263
264 257 263 264 255 239 241 246 254 269 274 287 303 306 306 307 313 319 325 326 328 328 327 325 322 319 319 318 310 300 295 292 292 287 283 277 277 273 269 266 262 257 256 262
259 301 275 256 237 218 223 228 229 247 267 305 307 307 307 305 307 315 322 321 321 322 322 322 322 320 318 315 314 311 304 301 296 292 287 283 283 274 270 271 269 265 268 265
276 276 244 255 78 214 231 249 237 259 279 292 299 305 299 288 297 312 316 318 318 318 319 323 324 323 319 317 318 320 321 318 313 301 295 297 293 284 280 276 269 273 274 274
239 260 271 270 207 197 227 269 231 246 274 292 311 304 285 292 311 310 310 312 313 314 315 319 326 327 324 325 326 330 326 322 319 314 305 300 297 297 290 286 283 282 290 277
222 248 255 308 82 238 224 263 194 249 276 298 309 297 319 342 322 315 315 314 317 319 321 324 329 330 327 327 327 325 320 317 320 323 323 318 307 301 297 291 293 299 296 295
228 247 267 311 108 186 224 303 311 263 275 275 274 288 314 317 315 316 316 315 318 320 325 329 332 332 328 326 324 321 319 320 331 338 333 330 331 317 303 293 290 291 316 325
203 226 254 127 151 206 284 325 273 273 279 277 283 297 304 308 312 316 319 319 323 327 328 332 337 334 328 329 327 328 328 333 341 345 347 345 344 345 342 295 308 349 7 353
208 228 321 181 223 266 290 275 275 280 287 284 284 288 299 304 308 313 317 321 327 331 330 336 343 340 332 330 331 330 335 344 350 353 354 349 346 2 8 6 10 14 23 12
251 259 259 249 258 269 268 268 278 281 283 279 276 284 293 299 307 314 319 324 329 332 335 340 346 344 333 328 330 336 345 349 353 355 356 6 6 11 15 9 8 11 11 3
251 272 283 255 249 263 270 273 278 283 282 277 274 280 286 295 303 313 320 327 332 334 336 340 345 344 340 339 347 354 355 354 356 355 358 8 10 9 6 11 5 349 341 355
238 233 233 260 265 260 256 265 273 279 287 283 273 276 288 294 302 310 319 329 335 339 339 339 343 343 344 343 350 358 356 353 351 348 356 5 13 21 31 27 29 32 28 30
256 266 263 273 272 261 262 272 280 275 276 282 284 277 281 295 304 311 319 327 332 334 334 335 338 341 344 344 347 356 352 344 342 345 351 358 7 13 19 35 39 37 41 40
248 255 260 258 267 280 279 288 294 292 288 284 288 291 292 299 304 310 316 322 328 333 334 334 338 341 342 343 348 351 345 345 339 340 343 347 353 354 359 9 13 20 33 35
243 243 250 275 297 302 298 293 295 299 305 306 300 292 291 295 303 311 319 325 330 336 336 338 340 339 342 345 349 348 344 346 346 343 344 345 350 354 1 4 2 358 4 15
258 243 237 247 260 273 281 279 279 286 290 288 288 292 296 299 305 315 323 331 336 335 335 337 334 334 338 342 346 349 354 355 344 347 352 351 352 352 350 349 349 350 348 339
207 222 228 241 252 262 265 265 264 272 279 276 280 294 306 315 321 327 332 335 332 328 330 331 329 332 337 341 342 340 344 355 345 340 345 342 340 339 342 344 343 337 333 339
230 236 234 237 243 254 267 270 267 267 268 275 284 289 291 295 304 316 327 335 338 342 342 339 333 331 336 338 338 331 333 342 344 339 337 342 340 337 336 331 329 323 323 333
231 236 240 241 241 240 250 261 266 269 272 259 252 265 277 286 298 310 321 332 333 332 335 340 336 336 336 338 334 334 335 338 343 341 337 334 329 328 324 316 315 315 316 315
228 230 230 239 245 238 244 256 263 266 261 239 243 268 286 294 301 307 310 312 311 315 320 325 328 333 336 338 332 334 334 330 327 328 328 323 320 322 321 316 312 310 310 308
211 213 216 229 253 260 250 242 235 247 258 232 228 246 271 292 299 296 292 307 320 332 332 328 331 329 329 333 330 334 334 327 321 319 320 318 316 316 317 316 312 307 306 305
199 198 209 217 227 267 278 253 227 222 224 240 254 255 266 282 288 285 278 285 309 319 324 321 324 332 343 342 336 336 334 327 319 315 313 309 307 309 311 309 306 307 307 305
206 202 200 205 212 242 289 269 225 216 226 237 240 243 252 270 275 275 291 302 315 317 320 317 326 337 346 343 336 330 321 313 308 305 302 300 298 300 303 306 306 304 305 308
207 206 206 198 172 187 236 267 266 261 255 261 257 253 255 268 278 273 291 301 310 312 315 319 327 335 339 332 325 318 310 304 302 299 297 299 299 298 299 301 305 306 308 313
204 202 192 188 199 220 231 240 273 278 286 286 285 271 260 262 269 288 298 297 301 306 308 318 328 334 333 322 319 313 306 301 305 304 300 301 301 302 304 306 307 310 313 313
204 213 221 231 234 228 221 217 230 245 260 278 292 288 285 284 285 291 295 298 300 305 307 306 312 321 320 319 314 310 310 311 310 310 308 306 305 306 308 314 321 318 313 313
203 208 214 231 229 212 211 217 224 232 235 247 276 286 289 290 295 301 302 301 301 302 304 306 308 307 310 310 310 311 313 313 311 309 306 303 304 306 310 313 315 312 310 310